contact:dominique.lefevre@mio.osupytheas.fr, maurice.libes@osupytheas.fr, didier.mallarino@osupytheas.fr
Project:EMSO http://www.emso-fr.org/EMSO-France
Depth: 2436.0 m
Title:EMSO Ligure Ouest : Data MII capteur AQUADOPP
Date,Latitude,Longitude,X_East,Y_North,Z_Up,Amplitude_X,Amplitude_Y,Amplitude_Z,Batterie,SoundSpeed,Heading,Pitch,Roll,Pressure,TIS,Speed,Direction
, degrees North, degrees East, m.s-1, m.s-1,m.s-1, 1, 1, 1, Volt, m.s-1, degree, degree, degree, dbar, degree_C, m.s-1, degree
2020-08-12T00:04:03,42.805,6.029,0.0,-0.005,-0.022,102.0,112.0,100.0,13.4,1505.2,327.6,-0.8,1.8,2470.503,13.3,0.005,180.0
2020-08-12T00:07:03,42.805,6.029,0.023,0.014,-0.006,103.0,112.0,101.0,13.3,1505.3,324.2,-0.7,1.8,2470.469,13.31,0.026,58.7
2020-08-12T00:10:03,42.805,6.029,0.009,0.002,-0.034,103.0,114.0,101.0,13.3,1505.3,325.0,-0.7,1.8,2470.47,13.32,0.009,77.5
2020-08-12T00:13:03,42.805,6.029,0.01,0.015,0.004,103.0,112.0,100.0,13.3,1505.3,325.0,-0.7,1.8,2470.498,13.32,0.018,33.7
2020-08-12T00:16:03,42.805,6.029,0.016,0.001,-0.038,103.0,113.0,100.0,13.4,1505.3,327.7,-0.7,1.8,2470.469,13.32,0.016,86.4
2020-08-12T00:19:03,42.805,6.029,0.022,0.002,-0.011,102.0,115.0,100.0,13.4,1505.3,325.9,-0.7,1.9,2470.507,13.32,0.022,84.8
2020-08-12T00:22:03,42.805,6.029,0.032,0.005,-0.001,103.0,113.0,99.0,13.3,1505.3,327.1,-0.7,1.8,2470.413,13.32,0.032,81.1
2020-08-12T00:25:03,42.805,6.029,0.025,-0.002,-0.015,103.0,113.0,101.0,13.4,1505.3,327.0,-0.7,1.8,2470.45,13.32,0.025,94.6
2020-08-12T00:28:03,42.805,6.029,0.038,0.013,0.011,103.0,112.0,101.0,13.4,1505.3,327.7,-0.7,1.8,2470.476,13.32,0.04,71.1
2020-08-12T00:31:03,42.805,6.029,0.026,0.01,-0.024,103.0,113.0,100.0,13.4,1505.3,325.7,-0.7,1.8,2470.465,13.32,0.027,69.0
2020-08-12T00:34:03,42.805,6.029,0.018,0.0,-0.014,102.0,113.0,100.0,13.4,1505.3,327.9,-0.7,1.8,2470.471,13.32,0.018,90.0
2020-08-12T00:37:03,42.805,6.029,0.017,0.024,-0.026,102.0,113.0,100.0,13.4,1505.3,326.9,-0.7,1.8,2470.475,13.32,0.029,35.3
2020-08-12T00:40:03,42.805,6.029,0.023,0.02,0.019,103.0,113.0,100.0,13.4,1505.3,327.8,-0.7,1.8,2470.467,13.32,0.03,49.0
2020-08-12T00:43:03,42.805,6.029,0.017,0.005,-0.037,102.0,114.0,102.0,13.4,1505.3,323.1,-0.7,1.8,2470.497,13.32,0.017,73.6
2020-08-12T00:49:03,42.805,6.029,0.032,0.003,-0.042,103.0,114.0,100.0,13.4,1505.2,328.0,-0.7,1.9,2470.519,13.3,0.032,84.6
2020-08-12T00:52:03,42.805,6.029,0.01,0.028,-0.03,103.0,112.0,100.0,13.3,1505.3,326.8,-0.7,1.8,2470.475,13.31,0.029,19.6
2020-08-12T00:55:03,42.805,6.029,0.032,-0.007,-0.012,102.0,113.0,100.0,13.4,1505.3,328.0,-0.7,1.8,2470.518,13.31,0.032,102.3
2020-08-12T00:58:03,42.805,6.029,0.033,0.007,0.0,104.0,114.0,101.0,13.4,1505.3,326.0,-0.7,1.8,2470.447,13.32,0.033,78.0
2020-08-12T01:04:03,42.805,6.029,0.003,0.005,-0.031,104.0,114.0,101.0,13.4,1505.2,327.2,-0.7,1.8,2470.54,13.3,0.005,31.0
2020-08-12T01:07:03,42.805,6.029,0.016,-0.002,0.0,103.0,113.0,100.0,13.4,1505.3,323.6,-0.7,1.8,2470.539,13.31,0.016,97.1
2020-08-12T01:10:03,42.805,6.029,0.025,0.003,-0.004,103.0,112.0,101.0,13.3,1505.3,327.0,-0.7,1.8,2470.501,13.31,0.025,83.2
2020-08-12T01:13:03,42.805,6.029,0.001,0.026,-0.027,104.0,111.0,99.0,13.3,1505.3,324.6,-0.7,1.8,2470.508,13.32,0.026,2.2
2020-08-12T01:16:03,42.805,6.029,0.022,-0.009,-0.035,103.0,111.0,101.0,13.4,1505.3,325.0,-0.7,1.8,2470.457,13.32,0.023,112.2
2020-08-12T01:19:03,42.805,6.029,0.039,-0.004,-0.015,102.0,112.0,102.0,13.4,1505.3,327.4,-0.7,1.8,2470.503,13.32,0.039,95.9
2020-08-12T01:22:03,42.805,6.029,0.003,0.021,0.023,103.0,110.0,102.0,13.3,1505.3,327.7,-0.7,1.8,2470.452,13.32,0.021,8.1
2020-08-12T01:25:03,42.805,6.029,-0.002,0.014,-0.016,103.0,112.0,101.0,13.4,1505.3,327.9,-0.7,1.8,2470.486,13.32,0.014,351.9
2020-08-12T01:28:03,42.805,6.029,0.016,0.006,-0.008,102.0,114.0,100.0,13.4,1505.3,327.1,-0.7,1.8,2470.489,13.32,0.017,69.4
2020-08-12T01:31:03,42.805,6.029,0.019,0.014,-0.006,100.0,115.0,101.0,13.4,1505.3,327.0,-0.7,1.8,2470.506,13.32,0.023,53.6
2020-08-12T01:34:03,42.805,6.029,0.016,-0.008,-0.045,103.0,112.0,100.0,13.4,1505.3,324.8,-0.7,1.8,2470.433,13.32,0.017,116.6
2020-08-12T01:37:03,42.805,6.029,0.022,0.008,-0.01,102.0,112.0,101.0,13.4,1505.3,326.0,-0.7,1.8,2470.493,13.32,0.023,70.0
2020-08-12T01:40:03,42.805,6.029,0.012,0.007,-0.025,104.0,109.0,100.0,13.4,1505.3,323.6,-0.7,1.9,2470.455,13.32,0.013,59.7
2020-08-12T01:43:03,42.805,6.029,0.016,-0.001,-0.005,103.0,111.0,101.0,13.4,1505.3,324.5,-0.7,1.8,2470.458,13.32,0.016,93.6
2020-08-12T01:46:03,42.805,6.029,0.017,0.0,-0.038,103.0,112.0,101.0,13.4,1505.3,325.7,-0.7,1.9,2470.472,13.32,0.017,90.0
2020-08-12T01:49:03,42.805,6.029,0.026,0.014,0.0,104.0,110.0,101.0,13.3,1505.3,326.9,-0.7,1.8,2470.453,13.32,0.029,61.7
2020-08-12T01:52:03,42.805,6.029,0.023,0.007,-0.031,103.0,110.0,100.0,13.4,1505.3,325.9,-0.7,1.8,2470.444,13.32,0.024,73.1
2020-08-12T01:55:03,42.805,6.029,-0.001,0.006,-0.032,101.0,115.0,100.0,13.3,1505.3,327.3,-0.7,1.8,2470.51,13.32,0.006,350.5
2020-08-12T01:58:03,42.805,6.029,0.02,0.008,-0.017,103.0,114.0,100.0,13.3,1505.3,326.9,-0.7,1.8,2470.493,13.32,0.021,68.2
2020-08-12T02:04:03,42.805,6.029,0.028,-0.008,-0.006,102.0,112.0,100.0,13.4,1505.2,325.5,-0.7,1.8,2470.496,13.3,0.029,105.9
2020-08-12T02:07:03,42.805,6.029,0.035,-0.004,0.018,102.0,110.0,101.0,13.3,1505.3,326.6,-0.7,1.8,2470.458,13.31,0.035,96.5
2020-08-12T02:10:03,42.805,6.029,0.008,0.027,-0.012,101.0,112.0,100.0,13.4,1505.3,326.4,-0.7,1.8,2470.482,13.31,0.028,16.5
2020-08-12T02:13:03,42.805,6.029,0.025,-0.013,-0.013,102.0,110.0,101.0,13.4,1505.3,325.8,-0.7,1.8,2470.484,13.32,0.028,117.5
2020-08-12T02:16:03,42.805,6.029,0.036,0.001,0.008,103.0,110.0,100.0,13.4,1505.3,325.5,-0.7,1.8,2470.453,13.32,0.036,88.4
2020-08-12T02:19:03,42.805,6.029,-0.005,0.007,0.002,103.0,110.0,101.0,13.4,1505.3,324.9,-0.7,1.8,2470.483,13.32,0.008,324.5
2020-08-12T02:22:03,42.805,6.029,0.031,0.006,-0.023,103.0,113.0,100.0,13.3,1505.3,327.7,-0.7,1.8,2470.419,13.32,0.031,79.0
2020-08-12T02:25:03,42.805,6.029,0.012,0.011,0.0,102.0,112.0,101.0,13.4,1505.3,323.8,-0.7,1.8,2470.477,13.32,0.016,47.5
2020-08-12T02:28:03,42.805,6.029,0.023,0.012,0.021,104.0,113.0,101.0,13.4,1505.3,325.0,-0.7,1.8,2470.509,13.32,0.025,62.4
2020-08-12T02:31:03,42.805,6.029,0.014,-0.006,0.0,102.0,111.0,100.0,13.4,1505.3,327.7,-0.7,1.8,2470.445,13.32,0.015,113.2
2020-08-12T02:34:03,42.805,6.029,0.011,-0.001,-0.002,104.0,110.0,99.0,13.3,1505.3,327.6,-0.7,1.8,2470.443,13.32,0.011,95.2
2020-08-12T02:37:03,42.805,6.029,0.034,0.0,0.002,103.0,111.0,100.0,13.3,1505.3,327.4,-0.7,1.8,2470.421,13.32,0.034,90.0
2020-08-12T02:40:03,42.805,6.029,0.027,0.022,-0.002,102.0,111.0,100.0,13.4,1505.3,323.4,-0.7,1.8,2470.456,13.32,0.034,50.8
2020-08-12T02:43:03,42.805,6.029,0.021,0.015,-0.025,102.0,112.0,101.0,13.4,1505.3,325.9,-0.7,1.8,2470.447,13.32,0.025,54.5
2020-08-12T02:46:03,42.805,6.029,-0.003,0.008,-0.042,103.0,112.0,101.0,13.3,1505.3,327.1,-0.7,1.8,2470.446,13.32,0.008,339.4
2020-08-12T02:49:03,42.805,6.029,0.022,0.01,-0.002,103.0,111.0,101.0,13.3,1505.3,325.4,-0.7,1.8,2470.449,13.32,0.024,65.6
2020-08-12T02:52:03,42.805,6.029,0.031,0.0,-0.002,103.0,109.0,101.0,13.4,1505.3,325.0,-0.7,1.8,2470.441,13.32,0.03,90.0
2020-08-12T02:55:03,42.805,6.029,0.014,0.007,-0.019,102.0,111.0,101.0,13.4,1505.3,323.0,-0.7,1.8,2470.456,13.32,0.015,63.4
2020-08-12T02:58:03,42.805,6.029,0.023,0.016,0.017,104.0,111.0,100.0,13.4,1505.3,326.9,-0.7,1.8,2470.432,13.32,0.028,55.2
2020-08-12T03:04:03,42.805,6.029,0.018,0.01,-0.032,102.0,112.0,101.0,13.3,1505.2,326.2,-0.7,1.8,2470.485,13.3,0.02,60.9
2020-08-12T03:07:03,42.805,6.029,0.019,0.026,0.003,102.0,110.0,100.0,13.4,1505.3,323.0,-0.7,1.8,2470.452,13.31,0.032,36.2
2020-08-12T03:10:03,42.805,6.029,0.034,-0.01,-0.014,103.0,112.0,101.0,13.3,1505.3,325.8,-0.7,1.8,2470.453,13.31,0.035,106.4
2020-08-12T03:13:03,42.805,6.029,0.026,0.013,0.004,102.0,112.0,100.0,13.4,1505.3,327.3,-0.7,1.8,2470.477,13.32,0.029,63.4
2020-08-12T03:16:03,42.805,6.029,0.031,-0.032,-0.005,104.0,111.0,101.0,13.4,1505.3,326.4,-0.7,1.8,2470.463,13.32,0.044,135.9
2020-08-12T03:19:03,42.805,6.029,0.008,0.0,-0.012,102.0,110.0,100.0,13.4,1505.3,327.7,-0.7,1.9,2470.444,13.32,0.008,90.0
2020-08-12T03:22:03,42.805,6.029,0.018,0.005,-0.03,103.0,111.0,101.0,13.3,1505.3,324.7,-0.7,1.8,2470.419,13.32,0.018,74.5
2020-08-12T03:25:03,42.805,6.029,0.012,0.003,-0.009,103.0,111.0,101.0,13.4,1505.3,325.5,-0.7,1.8,2470.46,13.32,0.012,76.0
2020-08-12T03:28:03,42.805,6.029,0.044,-0.001,0.007,104.0,109.0,101.0,13.3,1505.3,327.3,-0.7,1.9,2470.475,13.32,0.044,91.3
2020-08-12T03:31:03,42.805,6.029,0.017,0.023,-0.004,103.0,109.0,101.0,13.4,1505.3,325.1,-0.7,1.8,2470.465,13.32,0.028,36.5
2020-08-12T03:34:03,42.805,6.029,0.043,0.02,-0.015,102.0,110.0,101.0,13.3,1505.3,324.9,-0.7,1.8,2470.473,13.32,0.047,65.1
2020-08-12T03:37:03,42.805,6.029,0.045,0.013,-0.005,103.0,112.0,101.0,13.3,1505.3,325.0,-0.7,1.8,2470.46,13.32,0.046,73.9
2020-08-12T03:40:03,42.805,6.029,0.036,-0.001,-0.01,104.0,109.0,101.0,13.4,1505.3,326.5,-0.7,1.8,2470.416,13.32,0.036,91.6
2020-08-12T03:43:03,42.805,6.029,0.027,-0.002,-0.034,102.0,111.0,101.0,13.4,1505.3,325.4,-0.7,1.8,2470.435,13.32,0.027,94.2
2020-08-12T03:46:03,42.805,6.029,0.023,-0.002,-0.033,101.0,112.0,101.0,13.4,1505.3,327.9,-0.8,1.8,2470.475,13.32,0.023,95.0
2020-08-12T03:49:03,42.805,6.029,0.012,0.009,-0.009,104.0,111.0,101.0,13.4,1505.3,322.6,-0.7,1.8,2470.424,13.32,0.015,53.1
2020-08-12T03:52:03,42.805,6.029,0.013,0.009,-0.008,103.0,114.0,100.0,13.4,1505.3,323.7,-0.7,1.9,2470.409,13.32,0.015,55.3
2020-08-12T03:55:03,42.805,6.029,0.025,0.016,0.022,103.0,114.0,100.0,13.3,1505.3,322.9,-0.7,1.8,2470.433,13.32,0.029,57.4
2020-08-12T03:58:03,42.805,6.029,0.004,0.021,-0.024,103.0,114.0,101.0,13.4,1505.3,322.9,-0.7,1.8,2470.455,13.32,0.021,10.8
2020-08-12T04:04:03,42.805,6.029,0.014,0.006,-0.022,103.0,113.0,100.0,13.3,1505.2,326.4,-0.7,1.8,2470.457,13.3,0.015,66.8
2020-08-12T04:07:03,42.805,6.029,0.018,-0.001,-0.021,103.0,114.0,100.0,13.4,1505.3,328.4,-0.7,1.8,2470.492,13.31,0.018,93.2
2020-08-12T04:10:03,42.805,6.029,0.032,0.005,-0.013,102.0,112.0,100.0,13.4,1505.3,328.1,-0.7,1.9,2470.42,13.32,0.032,81.1
2020-08-12T04:13:03,42.805,6.029,0.025,0.006,0.018,103.0,113.0,101.0,13.4,1505.3,327.3,-0.7,1.8,2470.472,13.32,0.025,76.5
2020-08-12T04:16:03,42.805,6.029,0.043,0.013,-0.004,103.0,113.0,101.0,13.3,1505.3,324.5,-0.7,1.8,2470.459,13.32,0.044,73.2
2020-08-12T04:19:03,42.805,6.029,0.0,0.011,-0.033,102.0,113.0,100.0,13.4,1505.3,327.2,-0.7,1.8,2470.44,13.32,0.011,0.0
2020-08-12T04:22:03,42.805,6.029,0.011,0.008,0.0,103.0,112.0,101.0,13.4,1505.3,325.5,-0.7,1.8,2470.395,13.32,0.013,54.0
2020-08-12T04:25:03,42.805,6.029,0.039,0.001,-0.015,103.0,115.0,100.0,13.4,1505.3,326.3,-0.7,1.8,2470.44,13.32,0.039,88.5
2020-08-12T04:28:03,42.805,6.029,-0.01,0.011,-0.028,104.0,115.0,100.0,13.4,1505.3,328.1,-0.7,1.8,2470.391,13.32,0.014,317.7
2020-08-12T04:31:03,42.805,6.029,0.018,0.017,-0.007,103.0,112.0,100.0,13.4,1505.3,325.9,-0.7,1.8,2470.428,13.32,0.024,46.6
2020-08-12T04:34:03,42.805,6.029,0.04,-0.005,0.003,100.0,113.0,102.0,13.3,1505.3,326.3,-0.7,1.8,2470.413,13.32,0.04,97.1
2020-08-12T04:37:03,42.805,6.029,0.014,0.001,-0.049,103.0,112.0,102.0,13.4,1505.3,324.3,-0.7,1.9,2470.382,13.32,0.014,85.9
2020-08-12T04:40:03,42.805,6.029,0.039,0.019,0.004,103.0,114.0,100.0,13.4,1505.3,323.0,-0.7,1.8,2470.404,13.32,0.043,64.0
2020-08-12T04:43:03,42.805,6.029,0.021,0.004,-0.019,103.0,114.0,100.0,13.3,1505.3,322.8,-0.7,1.8,2470.392,13.32,0.021,79.2
2020-08-12T04:46:03,42.805,6.029,0.0,0.024,-0.029,104.0,112.0,100.0,13.4,1505.3,323.0,-0.7,1.8,2470.38,13.32,0.024,0.0
2020-08-12T04:49:03,42.805,6.029,0.018,0.009,-0.017,103.0,113.0,101.0,13.3,1505.3,325.4,-0.7,1.8,2470.397,13.32,0.02,63.4
2020-08-12T04:52:03,42.805,6.029,0.01,0.007,-0.01,103.0,112.0,101.0,13.4,1505.3,325.5,-0.7,1.9,2470.364,13.32,0.012,55.0
2020-08-12T04:55:03,42.805,6.029,0.038,0.004,0.0,102.0,113.0,100.0,13.4,1505.3,324.0,-0.7,1.8,2470.392,13.32,0.038,84.0
2020-08-12T04:58:03,42.805,6.029,0.036,-0.001,-0.004,103.0,114.0,100.0,13.4,1505.3,325.0,-0.7,1.8,2470.437,13.32,0.036,91.6
2020-08-12T05:04:03,42.805,6.029,0.023,0.019,-0.02,103.0,114.0,102.0,13.4,1505.2,323.2,-0.7,1.8,2470.426,13.3,0.029,50.4
2020-08-12T05:07:03,42.805,6.029,0.032,-0.001,-0.011,102.0,115.0,100.0,13.4,1505.3,324.9,-0.7,1.8,2470.401,13.31,0.032,91.8
2020-08-12T05:10:03,42.805,6.029,0.022,0.013,-0.035,102.0,114.0,100.0,13.4,1505.3,325.5,-0.7,1.8,2470.401,13.32,0.025,59.4
2020-08-12T05:13:03,42.805,6.029,0.013,0.009,-0.042,102.0,114.0,101.0,13.3,1505.3,328.2,-0.7,1.9,2470.371,13.32,0.015,55.3
2020-08-12T05:16:03,42.805,6.029,0.025,0.0,0.003,103.0,115.0,100.0,13.3,1505.3,324.2,-0.7,1.9,2470.395,13.32,0.025,90.0
2020-08-12T05:19:03,42.805,6.029,0.01,0.027,0.0,103.0,114.0,101.0,13.4,1505.3,324.0,-0.7,1.8,2470.39,13.32,0.028,20.3
2020-08-12T05:22:03,42.805,6.029,0.019,0.003,-0.011,103.0,115.0,100.0,13.4,1505.3,326.4,-0.7,1.8,2470.42,13.32,0.019,81.0
2020-08-12T05:25:03,42.805,6.029,0.011,0.002,-0.024,102.0,114.0,101.0,13.3,1505.3,324.2,-0.7,1.8,2470.41,13.32,0.011,79.7
2020-08-12T05:28:03,42.805,6.029,0.003,0.005,-0.033,102.0,115.0,100.0,13.4,1505.3,326.7,-0.7,1.9,2470.397,13.32,0.005,31.0
2020-08-12T05:31:03,42.805,6.029,0.02,0.015,-0.011,103.0,115.0,100.0,13.3,1505.3,324.8,-0.7,1.8,2470.403,13.32,0.025,53.1
2020-08-12T05:34:03,42.805,6.029,0.005,0.014,-0.017,102.0,113.0,101.0,13.3,1505.3,324.3,-0.7,1.8,2470.415,13.32,0.014,19.6
2020-08-12T05:37:03,42.805,6.029,0.012,0.022,-0.034,103.0,113.0,101.0,13.4,1505.3,324.6,-0.7,1.8,2470.407,13.32,0.025,28.6
2020-08-12T05:40:03,42.805,6.029,0.026,0.008,-0.001,102.0,114.0,100.0,13.4,1505.3,325.7,-0.7,1.8,2470.436,13.32,0.027,72.9
2020-08-12T05:43:03,42.805,6.029,0.021,0.018,-0.007,103.0,114.0,101.0,13.3,1505.3,324.9,-0.7,1.8,2470.413,13.32,0.027,49.4
2020-08-12T05:46:03,42.805,6.029,0.025,0.016,-0.017,103.0,115.0,100.0,13.4,1505.3,326.3,-0.7,1.8,2470.389,13.32,0.029,57.4
2020-08-12T05:49:03,42.805,6.029,0.026,0.017,-0.005,102.0,115.0,100.0,13.4,1505.3,323.1,-0.7,1.8,2470.385,13.32,0.031,56.8
2020-08-12T05:52:03,42.805,6.029,-0.001,0.02,-0.007,103.0,114.0,101.0,13.4,1505.3,326.9,-0.7,1.8,2470.407,13.32,0.02,357.1
2020-08-12T05:55:03,42.805,6.029,0.044,0.028,0.021,102.0,117.0,102.0,13.3,1505.3,326.5,-0.7,1.8,2470.385,13.32,0.052,57.5
2020-08-12T05:58:03,42.805,6.029,0.03,0.019,-0.038,102.0,116.0,100.0,13.3,1505.3,327.8,-0.7,1.8,2470.362,13.32,0.035,57.7
2020-08-12T06:04:03,42.805,6.029,0.022,0.015,-0.02,104.0,114.0,100.0,13.3,1505.2,325.2,-0.7,1.8,2470.419,13.3,0.026,55.7
2020-08-12T06:07:03,42.805,6.029,-0.001,0.01,-0.012,102.0,115.0,101.0,13.4,1505.3,327.4,-0.7,1.8,2470.385,13.31,0.01,354.3
2020-08-12T06:10:03,42.805,6.029,0.029,0.005,-0.013,101.0,116.0,101.0,13.3,1505.3,323.2,-0.7,1.8,2470.405,13.31,0.029,80.2
2020-08-12T06:13:03,42.805,6.029,0.021,0.012,-0.007,102.0,115.0,100.0,13.3,1505.3,325.1,-0.7,1.8,2470.377,13.32,0.024,60.3
2020-08-12T06:16:03,42.805,6.029,0.014,0.017,-0.018,102.0,114.0,100.0,13.4,1505.3,326.2,-0.7,1.8,2470.41,13.32,0.022,39.5
2020-08-12T06:19:03,42.805,6.029,0.026,0.018,-0.025,102.0,116.0,100.0,13.4,1505.3,325.6,-0.7,1.8,2470.384,13.32,0.031,55.3
2020-08-12T06:22:03,42.805,6.029,0.02,0.016,0.01,102.0,114.0,100.0,13.3,1505.3,326.3,-0.7,1.8,2470.394,13.32,0.025,51.3
2020-08-12T06:25:03,42.805,6.029,0.0,0.005,-0.022,102.0,115.0,101.0,13.3,1505.3,325.6,-0.7,1.8,2470.397,13.32,0.005,0.0
2020-08-12T06:31:03,42.805,6.029,0.028,0.002,-0.003,101.0,114.0,100.0,13.3,1505.2,324.4,-0.7,1.8,2470.423,13.3,0.028,85.9
2020-08-12T06:34:03,42.805,6.029,0.001,0.003,-0.005,102.0,114.0,100.0,13.4,1505.3,327.6,-0.7,1.8,2470.388,13.31,0.003,18.4
2020-08-12T06:37:03,42.805,6.029,0.016,0.004,-0.032,102.0,115.0,100.0,13.3,1505.3,327.1,-0.7,1.8,2470.39,13.31,0.016,76.0
2020-08-12T06:40:03,42.805,6.029,0.003,0.011,-0.007,102.0,115.0,100.0,13.4,1505.3,328.1,-0.7,1.8,2470.421,13.32,0.011,15.3
2020-08-12T06:43:03,42.805,6.029,-0.001,0.018,0.005,102.0,113.0,100.0,13.4,1505.3,326.2,-0.7,1.8,2470.396,13.32,0.018,356.8
2020-08-12T06:46:03,42.805,6.029,0.016,0.011,-0.009,103.0,116.0,100.0,13.4,1505.3,322.8,-0.7,1.8,2470.389,13.32,0.019,55.5
2020-08-12T06:49:03,42.805,6.029,0.023,0.017,0.004,101.0,115.0,101.0,13.4,1505.3,324.0,-0.7,1.8,2470.4,13.32,0.028,53.5
2020-08-12T06:52:03,42.805,6.029,0.023,0.013,-0.021,103.0,114.0,99.0,13.4,1505.3,326.0,-0.7,1.8,2470.388,13.32,0.026,60.5
2020-08-12T06:55:03,42.805,6.029,0.013,0.004,-0.013,105.0,116.0,99.0,13.3,1505.3,324.9,-0.7,1.8,2470.399,13.32,0.013,72.9
2020-08-12T06:58:03,42.805,6.029,0.007,0.001,-0.019,103.0,117.0,101.0,13.4,1505.3,324.5,-0.7,1.8,2470.392,13.32,0.007,81.9
2020-08-12T07:04:03,42.805,6.029,0.015,0.02,-0.011,102.0,115.0,101.0,13.4,1505.2,327.1,-0.7,1.8,2470.425,13.3,0.025,36.9
2020-08-12T07:07:03,42.805,6.029,0.016,0.021,0.005,102.0,116.0,101.0,13.3,1505.3,324.8,-0.7,1.9,2470.39,13.31,0.026,37.3
2020-08-12T07:10:03,42.805,6.029,0.026,0.023,-0.019,102.0,116.0,101.0,13.4,1505.3,328.7,-0.7,1.9,2470.416,13.31,0.034,48.5
2020-08-12T07:13:03,42.805,6.029,-0.003,0.012,-0.026,102.0,115.0,102.0,13.4,1505.3,326.5,-0.7,1.8,2470.385,13.32,0.012,346.0
2020-08-12T07:16:03,42.805,6.029,0.012,0.002,-0.006,102.0,117.0,101.0,13.3,1505.3,327.4,-0.7,1.8,2470.387,13.32,0.012,80.5
2020-08-12T07:19:03,42.805,6.029,0.04,0.011,-0.018,103.0,116.0,100.0,13.4,1505.3,325.7,-0.7,1.9,2470.404,13.32,0.041,74.6
2020-08-12T07:22:03,42.805,6.029,0.001,0.008,-0.032,104.0,116.0,101.0,13.4,1505.3,328.0,-0.7,1.8,2470.367,13.32,0.008,7.1
2020-08-12T07:25:03,42.805,6.029,0.002,0.003,0.002,103.0,116.0,101.0,13.4,1505.3,326.3,-0.7,1.8,2470.387,13.32,0.003,33.7
2020-08-12T07:28:03,42.805,6.029,0.029,-0.001,-0.038,103.0,114.0,101.0,13.4,1505.3,325.6,-0.7,1.9,2470.384,13.32,0.029,92.0
2020-08-12T07:31:03,42.805,6.029,0.023,0.008,0.0,103.0,116.0,101.0,13.4,1505.3,323.4,-0.7,1.8,2470.378,13.32,0.024,70.8
2020-08-12T07:34:03,42.805,6.029,0.017,0.007,-0.029,103.0,116.0,101.0,13.4,1505.3,325.8,-0.8,1.8,2470.346,13.32,0.018,67.6
2020-08-12T07:37:03,42.805,6.029,0.005,0.027,0.005,102.0,115.0,101.0,13.4,1505.3,325.5,-0.7,1.8,2470.335,13.32,0.027,10.5
2020-08-12T07:40:03,42.805,6.029,0.007,0.002,-0.004,103.0,117.0,101.0,13.3,1505.3,323.0,-0.7,1.8,2470.369,13.32,0.007,74.1
2020-08-12T07:43:03,42.805,6.029,0.026,0.015,-0.022,101.0,115.0,101.0,13.3,1505.3,325.4,-0.7,1.8,2470.363,13.32,0.03,60.0
2020-08-12T07:46:03,42.805,6.029,0.022,0.013,-0.006,104.0,118.0,101.0,13.4,1505.3,325.6,-0.7,1.8,2470.372,13.32,0.025,59.4
2020-08-12T07:49:03,42.805,6.029,0.015,0.009,-0.019,102.0,117.0,100.0,13.4,1505.3,323.9,-0.7,1.8,2470.382,13.32,0.017,59.0
2020-08-12T07:52:03,42.805,6.029,0.015,0.019,0.005,103.0,116.0,101.0,13.3,1505.3,324.8,-0.7,1.9,2470.376,13.32,0.024,38.3
2020-08-12T07:55:03,42.805,6.029,0.01,0.01,-0.026,103.0,117.0,99.0,13.4,1505.3,325.1,-0.7,1.8,2470.397,13.32,0.014,45.0
2020-08-12T07:58:03,42.805,6.029,0.008,0.003,-0.048,103.0,117.0,102.0,13.4,1505.3,324.9,-0.7,1.8,2470.395,13.32,0.008,69.4
2020-08-12T08:04:03,42.805,6.029,0.009,0.01,0.007,103.0,116.0,101.0,13.4,1505.2,328.2,-0.7,1.8,2470.388,13.3,0.013,42.0
2020-08-12T08:07:03,42.805,6.029,-0.003,0.012,-0.012,102.0,118.0,101.0,13.3,1505.3,324.0,-0.7,1.8,2470.421,13.31,0.012,346.0
2020-08-12T08:10:03,42.805,6.029,0.004,0.002,-0.054,102.0,118.0,101.0,13.4,1505.3,324.3,-0.7,1.8,2470.423,13.31,0.004,63.4
2020-08-12T08:13:03,42.805,6.029,0.019,0.0,-0.027,104.0,115.0,100.0,13.4,1505.3,326.9,-0.7,1.9,2470.39,13.32,0.019,90.0
2020-08-12T08:16:03,42.805,6.029,0.029,0.018,0.003,102.0,118.0,102.0,13.4,1505.3,328.1,-0.7,1.9,2470.419,13.32,0.034,58.2
2020-08-12T08:19:03,42.805,6.029,-0.012,0.026,-0.015,103.0,119.0,100.0,13.4,1505.3,325.4,-0.7,1.8,2470.361,13.32,0.028,335.2
2020-08-12T08:22:03,42.805,6.029,0.03,0.009,-0.002,104.0,119.0,100.0,13.3,1505.3,323.7,-0.7,1.8,2470.378,13.32,0.031,73.3
2020-08-12T08:25:03,42.805,6.029,0.03,0.024,0.006,105.0,119.0,100.0,13.4,1505.3,326.3,-0.7,1.9,2470.377,13.32,0.038,51.3
2020-08-12T08:28:03,42.805,6.029,0.036,0.042,0.018,102.0,118.0,100.0,13.4,1505.3,323.2,-0.7,1.9,2470.412,13.32,0.055,40.6
2020-08-12T08:31:03,42.805,6.029,0.007,0.01,-0.028,102.0,116.0,101.0,13.3,1505.3,326.5,-0.7,1.8,2470.367,13.32,0.012,35.0
2020-08-12T08:34:03,42.805,6.029,0.013,-0.001,-0.031,102.0,117.0,100.0,13.4,1505.3,327.6,-0.7,1.8,2470.405,13.32,0.013,94.4
2020-08-12T08:37:03,42.805,6.029,0.048,-0.008,-0.012,102.0,117.0,100.0,13.3,1505.3,325.4,-0.7,1.8,2470.413,13.32,0.048,99.5
2020-08-12T08:40:03,42.805,6.029,0.002,0.004,-0.037,103.0,116.0,101.0,13.4,1505.3,326.2,-0.7,1.8,2470.401,13.32,0.004,26.6
2020-08-12T08:43:03,42.805,6.029,0.013,0.033,-0.014,103.0,118.0,100.0,13.4,1505.3,324.9,-0.7,1.8,2470.384,13.32,0.035,21.5
2020-08-12T08:46:03,42.805,6.029,0.031,0.025,-0.012,102.0,117.0,100.0,13.4,1505.3,328.1,-0.7,1.8,2470.4,13.32,0.039,51.1
2020-08-12T08:49:03,42.805,6.029,0.02,0.004,-0.008,103.0,115.0,100.0,13.4,1505.3,326.6,-0.7,1.8,2470.403,13.32,0.02,78.7
2020-08-12T08:52:03,42.805,6.029,0.02,0.007,-0.033,103.0,117.0,100.0,13.4,1505.3,324.1,-0.7,1.8,2470.399,13.32,0.021,70.7
2020-08-12T08:55:03,42.805,6.029,0.017,0.022,0.0,103.0,119.0,101.0,13.3,1505.3,327.8,-0.7,1.8,2470.35,13.32,0.027,37.7
2020-08-12T08:58:03,42.805,6.029,0.014,0.015,-0.043,102.0,118.0,101.0,13.4,1505.3,326.7,-0.7,1.8,2470.399,13.32,0.02,43.0
2020-08-12T09:04:03,42.805,6.029,0.026,0.01,-0.033,103.0,117.0,100.0,13.4,1505.2,323.0,-0.7,1.8,2470.439,13.3,0.027,69.0
2020-08-12T09:07:03,42.805,6.029,0.013,0.004,-0.032,103.0,116.0,101.0,13.4,1505.3,326.8,-0.7,1.8,2470.424,13.31,0.013,72.9
2020-08-12T09:10:03,42.805,6.029,0.022,0.015,-0.024,104.0,119.0,101.0,13.4,1505.3,326.8,-0.7,1.8,2470.378,13.31,0.026,55.7
2020-08-12T09:13:03,42.805,6.029,0.038,0.016,-0.002,104.0,119.0,100.0,13.4,1505.3,324.7,-0.7,1.8,2470.428,13.32,0.041,67.2
2020-08-12T09:16:03,42.805,6.029,0.034,0.001,-0.002,103.0,117.0,101.0,13.4,1505.3,324.8,-0.7,1.9,2470.44,13.32,0.034,88.3
2020-08-12T09:19:03,42.805,6.029,0.03,0.008,0.005,105.0,118.0,100.0,13.4,1505.3,324.8,-0.7,1.9,2470.423,13.32,0.031,75.1
2020-08-12T09:22:03,42.805,6.029,0.03,0.031,-0.017,103.0,118.0,101.0,13.4,1505.3,326.4,-0.7,1.8,2470.393,13.32,0.043,44.1
2020-08-12T09:25:03,42.805,6.029,0.029,0.015,-0.008,103.0,118.0,101.0,13.3,1505.3,324.7,-0.7,1.8,2470.413,13.32,0.032,62.6
2020-08-12T09:28:03,42.805,6.029,0.029,-0.002,-0.046,103.0,117.0,101.0,13.4,1505.3,324.4,-0.7,1.8,2470.436,13.32,0.029,93.9
2020-08-12T09:31:03,42.805,6.029,0.034,-0.002,-0.036,103.0,118.0,101.0,13.3,1505.3,324.6,-0.7,1.8,2470.385,13.32,0.034,93.4
2020-08-12T09:34:03,42.805,6.029,0.04,-0.004,-0.02,102.0,118.0,101.0,13.4,1505.3,326.3,-0.7,1.9,2470.406,13.32,0.04,95.7
2020-08-12T09:37:03,42.805,6.029,0.016,-0.009,-0.03,103.0,114.0,100.0,13.4,1505.3,323.8,-0.7,1.9,2470.458,13.32,0.018,119.4
2020-08-12T09:40:03,42.805,6.029,0.014,0.026,0.032,102.0,118.0,100.0,13.3,1505.3,322.9,-0.7,1.8,2470.405,13.32,0.029,28.3
2020-08-12T09:43:03,42.805,6.029,0.052,0.003,-0.014,103.0,116.0,100.0,13.4,1505.3,325.5,-0.7,1.9,2470.409,13.32,0.052,86.7
2020-08-12T09:46:03,42.805,6.029,0.013,0.006,-0.039,103.0,118.0,100.0,13.4,1505.3,327.8,-0.7,1.9,2470.377,13.32,0.014,65.2
2020-08-12T09:49:03,42.805,6.029,0.016,0.019,-0.034,103.0,116.0,100.0,13.4,1505.3,327.0,-0.7,1.9,2470.382,13.32,0.024,40.1
2020-08-12T09:52:03,42.805,6.029,0.002,0.015,-0.015,103.0,115.0,101.0,13.4,1505.3,325.2,-0.7,1.8,2470.407,13.32,0.015,7.6
2020-08-12T09:55:03,42.805,6.029,0.017,0.024,0.01,104.0,117.0,100.0,13.4,1505.3,325.2,-0.7,1.8,2470.373,13.32,0.029,35.3
2020-08-12T09:58:03,42.805,6.029,0.038,0.009,-0.006,103.0,116.0,100.0,13.3,1505.3,325.1,-0.7,1.8,2470.364,13.32,0.039,76.7
2020-08-12T10:04:03,42.805,6.029,0.021,0.001,-0.021,102.0,116.0,101.0,13.4,1505.2,323.2,-0.7,1.9,2470.463,13.3,0.021,87.3
2020-08-12T10:07:03,42.805,6.029,-0.005,0.001,-0.036,103.0,115.0,101.0,13.4,1505.3,326.0,-0.7,1.8,2470.415,13.31,0.005,281.3
2020-08-12T10:10:03,42.805,6.029,0.02,0.012,0.005,101.0,118.0,100.0,13.3,1505.3,324.8,-0.7,1.8,2470.463,13.31,0.023,59.0
2020-08-12T10:13:03,42.805,6.029,0.028,0.023,-0.034,103.0,118.0,100.0,13.4,1505.3,328.0,-0.7,1.8,2470.439,13.32,0.036,50.6